Stanley, ID

4:16 PM MDT on May 24, 2017 (GMT -0600)
Stanley

Weather History for KSNT - May, 2013

Change the Weather History Date:

Sunday, May 19, 2013

  Actual Average Record
Temperature  
Mean Temperature 42 °F 44 °F  
Max Temperature 54 °F 59 °F 78 °F (1919)
Min Temperature 29 °F 29 °F 14 °F (2003)
Degree Days  
Heating Degree Days 23 21  
Month to date heating degree days 367 449  
Since 1 July heating degree days 9587 10109  
Cooling Degree Days 0 0  
Month to date cooling degree days 0 0  
Year to date cooling degree days 0 0  
Moisture  
Dew Point 28 °F    
Average Humidity 64    
Maximum Humidity 92    
Minimum Humidity 35    
Precipitation  
Precipitation 0.00 in 0.05 in 0.56 in (2005)
Month to date precipitation 0.34 1.07  
Year to date precipitation 4.62 7.91  
Sea Level Pressure  
Sea Level Pressure 30.04 in    
Wind  
Wind Speed 4 mph (NW)    
Max Wind Speed 14 mph    
Max Gust Speed 21 mph    
T = Trace of Precipitation, MM = Missing Value Source: NWS Daily Summary

Daily Weather History Graph

Daily Weather History Graph

Search for Another Location

Airport or City:

Trip Planner

Search our weather history database for the weather conditions in past years. The results will help you decide how hot, cold, wet, or windy it might be!

Date:

Astronomy

May. 19, 2013 Rise Set
Actual Time 6:08 AM MDT 9:04 PM MDT
Civil Twilight 5:34 AM MDT 9:38 PM MDT
Nautical Twilight 4:51 AM MDT 10:22 PM MDT
Astronomical Twilight 4:00 AM MDT 11:13 PM MDT
Moon 3:00 PM MDT (5/19) 2:47 AM MDT (5/19)
Length of Visible Light 16h 04m
Length of Day
14h 55m
Waxing Gibbous, 66% of the Moon is Illuminated
May 19
Waxing Gibbous
May 24
Full
May 31
Last Quarter
Jun 8
New
Jun 16
First Quarter

Hourly Weather History & Observations

Time (MDT) Temp. Windchill Dew Point Humidity Pressure Visibility Wind Dir Wind Speed Gust Speed Precip Events Conditions
12:51 AM 32.0 °F - 27.0 °F 82% 29.99 in - Calm Calm - N/A   Unknown
1:51 AM 34.0 °F - 28.9 °F 82% 29.99 in - Calm Calm - N/A   Unknown
2:51 AM 33.1 °F - 28.9 °F 85% 29.98 in - Calm Calm - N/A   Unknown
3:51 AM 30.9 °F - 28.0 °F 89% 29.99 in - Calm Calm - N/A   Unknown
4:51 AM 30.0 °F - 28.0 °F 92% 30.01 in - Calm Calm - N/A   Unknown
5:51 AM 30.0 °F - 28.9 °F 96% 30.01 in - Calm Calm - N/A   Unknown
6:51 AM 30.9 °F - 28.9 °F 92% 30.02 in - Calm Calm - N/A   Unknown
7:51 AM 34.0 °F - 28.9 °F 82% 30.03 in - Calm Calm - N/A   Unknown
8:51 AM 39.9 °F 37.8 °F 32.0 °F 73% 30.02 in - Variable 3.5 mph - N/A   Unknown
9:51 AM 45.0 °F 41.8 °F 30.9 °F 58% 30.04 in - Variable 5.8 mph - N/A   Unknown
10:51 AM 46.0 °F 42.5 °F 28.9 °F 51% 30.04 in - NW 6.9 mph - N/A   Unknown
11:51 AM 48.0 °F - 28.0 °F 46% 30.06 in - NNW 11.5 mph 17.3 mph N/A   Unknown
12:51 PM 48.9 °F - 25.0 °F 39% 30.04 in - Variable 6.9 mph - N/A   Unknown
1:51 PM 50.0 °F - 25.0 °F 38% 30.04 in - NW 9.2 mph - N/A   Unknown
2:51 PM 52.0 °F - 26.1 °F 37% 30.03 in - NW 8.1 mph 17.3 mph N/A   Unknown
3:51 PM 53.1 °F - 27.0 °F 37% 30.04 in - NNW 10.4 mph - N/A   Unknown
4:51 PM 50.0 °F - 26.1 °F 39% 30.06 in - WNW 8.1 mph - N/A   Unknown
5:51 PM 50.0 °F - 27.0 °F 41% 30.07 in - NNW 8.1 mph - N/A   Unknown
6:51 PM 48.9 °F - 27.0 °F 43% 30.07 in - Variable 6.9 mph - N/A   Unknown
7:51 PM 48.0 °F - 27.0 °F 44% 30.07 in - North 6.9 mph - N/A   Unknown
8:51 PM 45.0 °F 42.6 °F 28.9 °F 53% 30.07 in - NW 4.6 mph - N/A   Unknown
9:51 PM 43.0 °F 41.3 °F 28.9 °F 58% 30.07 in - Variable 3.5 mph - N/A   Unknown
10:51 PM 43.0 °F - 30.0 °F 60% 30.08 in - Calm Calm - N/A   Unknown
11:51 PM 39.0 °F - 28.9 °F 67% 30.09 in - Calm Calm - N/A   Unknown